Location: Unspecified
(47.6577°N, 23.5639°E)
Time: 18:19:28
(UTC+02:00)

ISS - Pass Details

Date: 13 February 2017
Orbit: 399 x 408 km, 51.6° (Epoch: 24 February)

Event Time Altitude Azimuth Distance (km) Brightness Sun altitude
Rises 19:18:19 0° 291° (WNW) 2,326 1.8 -16.1°
Reaches altitude 10° 19:20:30 10° 283° (WNW) 1,461 0.7 -16.5°
Maximum altitude 19:23:32 35° 215° (SW) 666 -2.0 -17.0°
Enters shadow 19:25:17 20° 160° (SSE) 1,003 -1.5 -17.3°
